Location: Unspecified
(35.6961°N, 0.0000°E)
Time: 03:11:33
(UTC+00:00)

S-56A Canister/Altair - Pass Details

Date: 02 June 2019
Orbit: 633 x 2499 km, 38.9° (Epoch: 16 June)

Event Time Altitude Azimuth Distance (km) Brightness Sun altitude
Rises 22:22:39 0° 250° (WSW) 2,920 10.6 -27.8°
Enters shadow 22:23:38 - 250° (WSW) 2,514 10.2 -27.9°
Reaches altitude 10° 22:24:52 10° 250° (WSW) 2,006 - -28.0°
Maximum altitude 22:29:18 86° 160° (SSE) 679 - -28.4°
Drops below altitude 10° 22:34:35 10° 73° (ENE) 2,386 - -28.8°
Exits shadow 22:36:13 - 73° (ENE) 3,042 10.5 -28.9°
Sets 22:37:26 0° 73° (ENE) 3,533 10.9 -29.0°
